{"data":{"norad_id":59854,"epoch":"2026-09-21T15:39:54.204480Z","epoch_age_seconds":74934,"freshness":"FRESH","line1":"1 59854U 24097V   26264.65271070  .00000132  00000+0  14312-4 0  9991","line2":"2 59854  43.0003 247.9333 0000999 272.4219  87.6519 15.27575294131882","mean_motion":15.27575294,"eccentricity":9.99e-5,"inclination_deg":43.0003,"raan_deg":247.9333,"arg_perigee_deg":272.4219,"mean_anomaly_deg":87.6519,"bstar":1.4312e-5,"rev_number":13188,"period_min":94.26703912115,"perigee_km":482.37775363407,"apogee_km":483.74862143154,"semimajor_km":6861.2001875328,"source":"CELESTRAK","updated_at":"2026-09-22T09:00:49.099102Z"}}